SAS6308 ESSV-ESGG

Flight info

Callsign SAS6308
Flight time 0h 43m
Altitude 34000
Route HANSA DCT MOXAM
Aircraft A320/M-SDE3FGHIJ1RWXYZ/ALB1

Departure

Time 2026-04-25 20:40
Airport Visby Airport (ESSV)

Arrival

Time 2026-04-25 21:24
Airport Göteborg Landvetter Airport (ESGG)
Time Latitude Longitude Altitude Speed Heading
2026-04-25 20:19 57.66018 18.33924 159 ft 0 kts 336°
2026-04-25 20:33 57.66017 18.33925 159 ft 2 kts 336°
2026-04-25 20:33 57.66002 18.33937 159 ft 4 kts 337°
2026-04-25 20:34 57.65970 18.33965 159 ft 4 kts 330°
2026-04-25 20:34 57.65952 18.33979 159 ft 2 kts 31°
2026-04-25 20:34 57.65950 18.33978 159 ft 0 kts 32°
2026-04-25 20:36 57.65958 18.33987 159 ft 4 kts 33°
2026-04-25 20:36 57.65994 18.34038 159 ft 8 kts 48°
2026-04-25 20:37 57.65998 18.34159 159 ft 11 kts 108°
2026-04-25 20:37 57.65970 18.34298 158 ft 11 kts 113°
2026-04-25 20:37 57.65910 18.34353 157 ft 10 kts 193°
2026-04-25 20:37 57.65833 18.34301 157 ft 13 kts 201°
2026-04-25 20:38 57.65747 18.34238 159 ft 14 kts 201°
2026-04-25 20:38 57.65651 18.34171 159 ft 16 kts 200°
2026-04-25 20:38 57.65536 18.34103 167 ft 19 kts 193°
2026-04-25 20:38 57.65466 18.34069 157 ft 5 kts 214°
2026-04-25 20:39 57.65471 18.34049 159 ft 2 kts 324°
2026-04-25 20:39 57.65488 18.34052 159 ft 3 kts 20°
2026-04-25 20:39 57.65587 18.34124 159 ft 45 kts 21°
2026-04-25 20:39 57.65883 18.34333 157 ft 91 kts 21°
2026-04-25 20:40 57.66941 18.35090 381 ft 134 kts 18°
2026-04-25 20:40 57.67840 18.35754 849 ft 143 kts 19°
2026-04-25 20:40 57.68775 18.36493 1462 ft 149 kts 20°
2026-04-25 20:40 57.69783 18.37326 1850 ft 170 kts 20°
2026-04-25 20:41 57.70939 18.38270 2239 ft 193 kts 20°
2026-04-25 20:41 57.72260 18.39278 2710 ft 217 kts 14°
2026-04-25 20:41 57.73794 18.39293 3442 ft 229 kts 344°
2026-04-25 20:41 57.75124 18.37623 4445 ft 240 kts 313°
2026-04-25 20:42 57.76004 18.34914 5476 ft 245 kts 304°
2026-04-25 20:42 57.76822 18.32099 6481 ft 247 kts 303°
2026-04-25 20:42 57.77637 18.29242 7428 ft 250 kts 303°
2026-04-25 20:42 57.78460 18.26355 8377 ft 252 kts 303°
2026-04-25 20:43 57.79295 18.23441 9306 ft 255 kts 303°
2026-04-25 20:43 57.80125 18.20522 10082 ft 263 kts 300°
2026-04-25 20:43 57.80568 18.16945 10362 ft 299 kts 273°
2026-04-25 20:43 57.80207 18.12976 10928 ft 315 kts 264°
2026-04-25 20:44 57.79742 18.08944 11737 ft 317 kts 263°
2026-04-25 20:44 57.79276 18.04947 12566 ft 319 kts 263°
2026-04-25 20:44 57.78808 18.00884 13409 ft 320 kts 264°
2026-04-25 20:44 57.78340 17.96798 14172 ft 322 kts 263°
2026-04-25 20:45 57.77869 17.92680 14857 ft 325 kts 263°
2026-04-25 20:45 57.77395 17.88515 15504 ft 329 kts 263°
2026-04-25 20:45 57.76916 17.84297 16138 ft 333 kts 263°
2026-04-25 20:45 57.76430 17.80048 16821 ft 335 kts 263°
2026-04-25 20:46 57.75934 17.75763 17505 ft 338 kts 263°
2026-04-25 20:46 57.75432 17.71438 18164 ft 342 kts 263°
2026-04-25 20:46 57.74922 17.67066 18744 ft 346 kts 262°
2026-04-25 20:46 57.74402 17.62648 19354 ft 349 kts 262°
2026-04-25 20:47 57.73876 17.58200 19973 ft 352 kts 262°
2026-04-25 20:47 57.73345 17.53713 20584 ft 354 kts 262°
2026-04-25 20:47 57.72811 17.49186 21179 ft 357 kts 262°
2026-04-25 20:47 57.72273 17.44628 21759 ft 361 kts 262°
2026-04-25 20:48 57.71729 17.40033 22359 ft 364 kts 262°
2026-04-25 20:48 57.71177 17.35392 22940 ft 367 kts 262°
2026-04-25 20:48 57.70619 17.30718 23491 ft 370 kts 262°
2026-04-25 20:48 57.70055 17.26005 23933 ft 373 kts 262°
2026-04-25 20:49 57.69482 17.21251 24363 ft 377 kts 262°
2026-04-25 20:49 57.68899 17.16448 24763 ft 380 kts 262°
2026-04-25 20:49 57.68308 17.11599 25136 ft 385 kts 263°
2026-04-25 20:49 57.67710 17.06691 25520 ft 390 kts 263°
2026-04-25 20:50 57.67105 17.01731 25915 ft 393 kts 263°
2026-04-25 20:50 57.66494 16.96734 26311 ft 397 kts 264°
2026-04-25 20:50 57.66055 16.91668 26694 ft 394 kts 271°
2026-04-25 20:50 57.65807 16.86547 27090 ft 397 kts 271°
2026-04-25 20:51 57.65566 16.81395 27473 ft 400 kts 271°
2026-04-25 20:51 57.65326 16.76194 27851 ft 403 kts 272°
2026-04-25 20:51 57.65085 16.70955 28242 ft 407 kts 272°
2026-04-25 20:51 57.64839 16.65675 28604 ft 410 kts 272°
2026-04-25 20:52 57.64583 16.60358 28981 ft 413 kts 272°
2026-04-25 20:52 57.64408 16.56812 29230 ft 416 kts 271°
2026-04-25 20:52 57.64044 16.49592 29690 ft 420 kts 272°
2026-04-25 20:52 57.63770 16.44150 30040 ft 423 kts 273°
2026-04-25 20:53 57.63495 16.38670 30343 ft 425 kts 272°
2026-04-25 20:53 57.63213 16.33157 30645 ft 428 kts 272°
2026-04-25 20:53 57.62926 16.27609 30936 ft 431 kts 272°
2026-04-25 20:53 57.62637 16.22039 31225 ft 434 kts 272°
2026-04-25 20:54 57.62344 16.16409 31552 ft 435 kts 272°
2026-04-25 20:54 57.62045 16.10792 31972 ft 435 kts 272°
2026-04-25 20:54 57.61745 16.05198 32386 ft 434 kts 271°
2026-04-25 20:54 57.61443 15.99588 32799 ft 435 kts 271°
2026-04-25 20:55 57.61141 15.93975 33200 ft 435 kts 271°
2026-04-25 20:55 57.60837 15.88367 33611 ft 435 kts 271°
2026-04-25 20:55 57.60534 15.82822 33821 ft 436 kts 271°
2026-04-25 20:55 57.60224 15.77234 33888 ft 429 kts 271°
2026-04-25 20:56 57.59597 15.66273 33899 ft 423 kts 271°
2026-04-25 20:56 57.58973 15.55312 33904 ft 422 kts 271°
2026-04-25 20:57 57.58352 15.44521 33907 ft 422 kts 271°
2026-04-25 20:57 57.57715 15.33657 33910 ft 422 kts 271°
2026-04-25 20:58 57.57073 15.22703 33911 ft 430 kts 271°
2026-04-25 20:58 57.56404 15.11611 33902 ft 430 kts 272°
2026-04-25 20:59 57.55715 15.00590 33111 ft 429 kts 272°
2026-04-25 20:59 57.55372 14.95092 32490 ft 426 kts 273°
2026-04-25 20:59 57.55031 14.89632 31947 ft 423 kts 273°
2026-04-25 21:00 57.54688 14.84222 31436 ft 419 kts 274°
2026-04-25 21:00 57.54572 14.82402 31270 ft 418 kts 274°
2026-04-25 21:00 57.53667 14.68312 29799 ft 405 kts 275°
2026-04-25 21:01 57.53332 14.63134 29049 ft 401 kts 275°
2026-04-25 21:01 57.52998 14.58026 28335 ft 395 kts 275°
2026-04-25 21:01 57.52666 14.52971 27619 ft 392 kts 276°
2026-04-25 21:01 57.52335 14.47975 27152 ft 387 kts 276°
2026-04-25 21:02 57.52006 14.43041 26682 ft 383 kts 276°
2026-04-25 21:02 57.51679 14.38153 26244 ft 379 kts 276°
2026-04-25 21:02 57.51353 14.33313 25846 ft 375 kts 276°
2026-04-25 21:02 57.51033 14.28513 25369 ft 373 kts 276°
2026-04-25 21:03 57.50714 14.23749 24912 ft 371 kts 276°
2026-04-25 21:03 57.50395 14.19025 24584 ft 366 kts 276°
2026-04-25 21:03 57.50076 14.14324 24184 ft 364 kts 275°
2026-04-25 21:03 57.49754 14.09677 23840 ft 361 kts 275°
2026-04-25 21:04 57.49433 14.05063 23434 ft 359 kts 275°
2026-04-25 21:04 57.49112 14.00477 22956 ft 357 kts 275°
2026-04-25 21:04 57.48791 13.95919 22476 ft 354 kts 275°
2026-04-25 21:04 57.48470 13.91400 21847 ft 353 kts 275°
2026-04-25 21:05 57.48150 13.86913 21471 ft 348 kts 276°
2026-04-25 21:05 57.47833 13.82475 21048 ft 344 kts 276°
2026-04-25 21:05 57.47519 13.78100 20649 ft 340 kts 276°
2026-04-25 21:05 57.47206 13.73771 20237 ft 336 kts 275°
2026-04-25 21:06 57.46896 13.69497 19831 ft 332 kts 275°
2026-04-25 21:06 57.46588 13.65273 19429 ft 329 kts 275°
2026-04-25 21:06 57.46283 13.61078 18996 ft 326 kts 275°
2026-04-25 21:06 57.46185 13.59733 18892 ft 325 kts 275°
2026-04-25 21:07 57.45678 13.52825 18246 ft 320 kts 274°
2026-04-25 21:07 57.45380 13.48806 17823 ft 317 kts 274°
2026-04-25 21:07 57.45078 13.44779 17438 ft 313 kts 273°
2026-04-25 21:07 57.44778 13.40802 17054 ft 309 kts 273°
2026-04-25 21:08 57.44484 13.36879 16676 ft 305 kts 273°
2026-04-25 21:08 57.44193 13.32998 16304 ft 302 kts 272°
2026-04-25 21:08 57.43904 13.29154 15936 ft 299 kts 272°
2026-04-25 21:08 57.43617 13.25352 15556 ft 295 kts 273°
2026-04-25 21:09 57.43048 13.17874 14864 ft 290 kts 272°
2026-04-25 21:09 57.42765 13.14174 14510 ft 289 kts 272°
2026-04-25 21:09 57.42483 13.10497 14156 ft 287 kts 271°
2026-04-25 21:10 57.42202 13.06834 13803 ft 286 kts 271°
2026-04-25 21:10 57.41918 13.03189 13421 ft 285 kts 270°
2026-04-25 21:10 57.41634 12.99570 13079 ft 283 kts 270°
2026-04-25 21:10 57.41352 12.95977 12733 ft 280 kts 270°
2026-04-25 21:11 57.41068 12.92412 12387 ft 278 kts 270°
2026-04-25 21:11 57.40788 12.88883 12047 ft 276 kts 270°
2026-04-25 21:11 57.40511 12.85378 11712 ft 274 kts 269°
2026-04-25 21:11 57.40234 12.81897 11368 ft 272 kts 269°
2026-04-25 21:12 57.39958 12.78436 11031 ft 270 kts 269°
2026-04-25 21:12 57.39686 12.75000 10742 ft 268 kts 269°
2026-04-25 21:12 57.39413 12.71587 10385 ft 268 kts 268°
2026-04-25 21:12 57.39324 12.70477 10277 ft 268 kts 268°
2026-04-25 21:13 57.38862 12.64773 9700 ft 266 kts 268°
2026-04-25 21:13 57.38589 12.61438 9347 ft 264 kts 268°
2026-04-25 21:13 57.38311 12.58084 9027 ft 262 kts 268°
2026-04-25 21:13 57.38126 12.55832 8806 ft 261 kts 268°
2026-04-25 21:14 57.37855 12.52513 8481 ft 260 kts 268°
2026-04-25 21:14 57.37499 12.48157 8059 ft 257 kts 268°
2026-04-25 21:14 57.37318 12.45947 7841 ft 256 kts 268°
2026-04-25 21:14 57.37048 12.42691 7516 ft 255 kts 268°
2026-04-25 21:15 57.36778 12.39452 7196 ft 254 kts 268°
2026-04-25 21:15 57.36507 12.36212 6873 ft 255 kts 268°
2026-04-25 21:15 57.36236 12.32971 6549 ft 255 kts 268°
2026-04-25 21:15 57.35977 12.29718 6207 ft 255 kts 271°
2026-04-25 21:16 57.36079 12.26566 5870 ft 244 kts 290°
2026-04-25 21:16 57.36694 12.23661 5563 ft 236 kts 306°
2026-04-25 21:16 57.37682 12.21359 5248 ft 229 kts 322°
2026-04-25 21:16 57.38899 12.19498 4938 ft 226 kts 324°
2026-04-25 21:17 57.40112 12.17661 4633 ft 225 kts 324°
2026-04-25 21:17 57.41297 12.15855 4531 ft 215 kts 324°
2026-04-25 21:17 57.42455 12.14252 4452 ft 201 kts 333°
2026-04-25 21:17 57.43689 12.13241 4370 ft 188 kts 345°
2026-04-25 21:18 57.44931 12.12800 4295 ft 177 kts 356°
2026-04-25 21:18 57.46120 12.12647 4211 ft 167 kts 356°
2026-04-25 21:18 57.47266 12.12494 4140 ft 164 kts 356°
2026-04-25 21:18 57.48404 12.12353 4069 ft 163 kts 360°
2026-04-25 21:19 57.49514 12.12806 3970 ft 166 kts 21°
2026-04-25 21:19 57.50552 12.13742 3761 ft 165 kts 21°
2026-04-25 21:19 57.51582 12.14675 3553 ft 163 kts 21°
2026-04-25 21:19 57.52602 12.15595 3333 ft 163 kts 21°
2026-04-25 21:20 57.53610 12.16506 3138 ft 158 kts 21°
2026-04-25 21:20 57.54261 12.17093 2975 ft 154 kts 21°
2026-04-25 21:20 57.55481 12.18198 2670 ft 138 kts 21°
2026-04-25 21:20 57.56329 12.18963 2496 ft 134 kts 21°
2026-04-25 21:21 57.57161 12.19713 2313 ft 132 kts 20°
2026-04-25 21:21 57.57985 12.20457 2132 ft 131 kts 20°
2026-04-25 21:21 57.58805 12.21198 1941 ft 131 kts 20°
2026-04-25 21:21 57.59620 12.21936 1761 ft 130 kts 20°
2026-04-25 21:22 57.60439 12.22677 1595 ft 131 kts 20°
2026-04-25 21:22 57.61255 12.23421 1451 ft 131 kts 20°
2026-04-25 21:22 57.62070 12.24140 1247 ft 132 kts 21°
2026-04-25 21:22 57.62903 12.24906 970 ft 133 kts 23°
2026-04-25 21:23 57.63721 12.25677 791 ft 130 kts 22°
2026-04-25 21:23 57.64541 12.26405 613 ft 131 kts 22°
2026-04-25 21:23 57.65356 12.27145 500 ft 127 kts 23°
2026-04-25 21:23 57.66022 12.27742 507 ft 82 kts 26°
2026-04-25 21:24 57.66382 12.28071 511 ft 38 kts 25°
2026-04-25 21:24 57.66595 12.28290 512 ft 28 kts 40°
2026-04-25 21:24 57.66713 12.28566 512 ft 19 kts 55°
2026-04-25 21:24 57.66759 12.28693 513 ft 13 kts 56°
2026-04-25 21:25 57.66828 12.28822 513 ft 16 kts 28°
2026-04-25 21:25 57.66936 12.28922 514 ft 19 kts 26°
2026-04-25 21:25 57.67004 12.28985 514 ft 8 kts 26°
2026-04-25 21:25 57.67039 12.29073 514 ft 10 kts 90°
2026-04-25 21:26 57.67011 12.29196 516 ft 11 kts 116°
2026-04-25 21:26 57.66986 12.29292 516 ft 7 kts 115°
2026-04-25 21:26 57.66954 12.29334 516 ft 5 kts 192°
2026-04-25 21:26 57.66916 12.29319 516 ft 7 kts 159°
2026-04-25 21:27 57.66899 12.29376 516 ft 3 kts 114°
2026-04-25 21:27 57.66890 12.29413 516 ft 2 kts 115°
2026-04-25 21:27 57.66887 12.29425 516 ft 0 kts 115°